Nueva Hesperides International Airport

Jump to: basic info | weather | frequencies | runways | comments

Related pages: nearby airports | nearby navaids | notams | map

Basic information (top)

Codes: STY SUSO
Location: lon -31.438499, lat -57.985298, elev 187 ft / 57 m msl
Status: medium_airport

Weather (top)

Current conditions (rec'd 2014/04/23 16:00Z):

SUSO 231600Z 10006KT CAVOK 21/09 Q1021

Airport forecast (rec'd 2014/04/20 00:42Z):

TAF SUSO 202300Z 2100/2124 10007KT CAVOK TX25/2118Z TN12/2110Z 
      TEMPO 2103/2110 VRB03KT 3000 BR SCT010 PROB40 2106/2111 0800 BCFG

Frequencies (top)

Verify before use: may be inaccurate or out of date.

RDO: 286 MHz (SALTO RDO)
TWR: 118.8 MHz (SALTO TWR)

Runways (top)

05/23: 5,210 x 148 ft (1,588 x 45 m) — paved — lighted

13/31: 2,461 x 164 ft (750 x 50 m) — grass — not lighted

Latest comments (top)

No comments yet for Nueva Hesperides International Airport

More... (top)

See also NOTAMs and nearby airports and navaids, or visit the Nueva Hesperides International Airport page at the main OurAirports website..